STARLINK-36919, 68053

Orbit data source: Space-Track

STARLINK-36919, 68053 is a payload satellite owned by SpaceX/Seattle (US) in LEO that was launched on Mon, 02 Mar 2026 UTC via an FALCON 9 launch vehicle from the Air Force Eastern Test Range (AFETR). Payload-class satellites include a variety of spacecraft equipped with specific instruments for various scientific and technological missions. These include communications satellites like Starlink; space stations such as the ISS; scientific satellites like the Hubble; Earth observation satellites from companies like Planet Labs, Umbra, and HawkEye 360; GPS; miniature CubeSats for education and research; and military/defense satellites.

Loading next visibility...
Identifier
68053, 2026-041P
Orbit
LEO
Country
Flag of USUS
Related business
Manufacturer
SpaceX/Seattle
Mission
Operational Commercial Communications
Bus & Motor
STARLINK V2MO, Unknown motor
Mass
575 kg wet, ~530 kg dry
Launch date (UTC)
2026-03-02 (2 months ago)
Launch vehicle
FALCON 9
Launch site
Air Force Eastern Test Range (AFETR)
Object type
Payload
Rocket body
Debris
Shape & HBR
Box + 2 Pan, 17.7 m
Radar Cross Section
36.964 m²

Expand to show TLE details & history
Last TLE update: 12 hours ago

TLE from 12 hours ago
0 STARLINK-36919
1 68053U 26041P   26118.88503573  .00026181  00000-0  89283-3 0  9993
2 68053  53.1615 176.6987 0000967  88.1527 271.9584 15.30205371  9071
Epoch: 2026-04-28T21:14Z
TLE epoch observation values (Epoch: 2026-04-28T21:14:27.087Z)
Latitude
-0.00004°
Longitude
1.23187°
Altitude
476.076 km
Speed
7.629 km/s
True Right ascension
11h 46m 47s
True Declination
0° 00' 00"
Sunlit
Object was in full shadow at epoch
Visualization orbit readout
Latitude
Unknown
Longitude
Unknown
Altitude
Unknown
Speed
Unknown
Apparent Right ascension
Unknown
Apparent Declination
Unknown
Sunlit
N/A
Visualization observer readout
Local Sidereal Time
17:07:11
Azimuth
Unknown
Elevation
Unknown
Doppler factor
Unknown
Orbital elements
Apogee altitude
476.118 km
Perigee altitude
474.792 km
Semi-major axis
6,853.592 km
Eccentricity
0.0001
Inclination
53.1615°
RAAN
176.6987°
Arg. of periapsis
88.1527°
True anomaly
271.94733°
Mean anomaly
271.9584°
Eccentric anomaly
271.95286°
Mean motion
3.8253 °/min
Orbital period
94.11 mins
BSTAR
0.00089283
Loading maneuver chart data...
Computing Atmospheric mass density...
Loading historical data...
Loading historical data...
Loading historical data...
Loading historical data...
Loading historical data...
Loading historical data...
Loading historical data...

Documentation

Showing up to 5 results
|